TimeMDT,TemperatureF,Dew PointF,Humidity,Sea Level PressureIn,VisibilityMPH,Wind Direction,Wind SpeedMPH,Gust SpeedMPH,PrecipitationIn,Events,Conditions,WindDirDegrees,DateUTC
12:53 AM,30.0,28.9,96,30.05,10.0,WSW,5.8,-,N/A,,Clear,240,2013-04-13 06:53:00
1:53 AM,30.0,28.9,96,30.04,10.0,WSW,8.1,-,N/A,,Clear,250,2013-04-13 07:53:00
2:53 AM,28.9,27.0,92,30.01,10.0,WSW,5.8,-,N/A,,Clear,250,2013-04-13 08:53:00
3:53 AM,30.0,28.0,92,30.00,10.0,WSW,4.6,-,N/A,,Clear,240,2013-04-13 09:53:00
4:53 AM,28.0,27.0,96,29.97,10.0,South,3.5,-,N/A,,Clear,170,2013-04-13 10:53:00
5:53 AM,30.0,28.0,92,29.94,10.0,South,5.8,-,N/A,,Partly Cloudy,190,2013-04-13 11:53:00
6:32 AM,32.0,30.2,93,29.87,10.0,South,8.1,-,N/A,,Mostly Cloudy,190,2013-04-13 12:32:00
6:53 AM,30.9,30.0,96,29.92,10.0,SSW,9.2,-,N/A,,Partly Cloudy,200,2013-04-13 12:53:00
7:53 AM,34.0,32.0,92,29.89,10.0,SSW,11.5,-,0.01,,Clear,200,2013-04-13 13:53:00
8:14 AM,35.6,33.8,93,29.83,10.0,South,12.7,-,N/A,,Mostly Cloudy,190,2013-04-13 14:14:00
8:44 AM,39.2,35.6,87,29.80,10.0,South,13.8,19.6,N/A,,Scattered Clouds,180,2013-04-13 14:44:00
8:53 AM,39.9,35.1,83,29.84,10.0,South,15.0,24.2,N/A,,Clear,170,2013-04-13 14:53:00
9:43 AM,42.8,35.6,76,29.76,10.0,South,25.3,32.2,N/A,,Mostly Cloudy,180,2013-04-13 15:43:00
9:53 AM,41.0,35.1,79,29.80,10.0,South,21.9,32.2,N/A,,Mostly Cloudy,170,2013-04-13 15:53:00
10:33 AM,44.6,37.4,76,29.72,10.0,South,24.2,33.4,N/A,,Scattered Clouds,180,2013-04-13 16:33:00
10:53 AM,46.9,37.9,71,29.75,10.0,SSW,24.2,29.9,N/A,,Partly Cloudy,200,2013-04-13 16:53:00
11:41 AM,48.2,39.2,71,29.69,10.0,South,16.1,26.5,N/A,,Mostly Cloudy,190,2013-04-13 17:41:00
11:53 AM,48.9,39.0,69,29.71,10.0,South,17.3,24.2,N/A,,Mostly Cloudy,180,2013-04-13 17:53:00
12:17 PM,51.8,41.0,67,29.66,10.0,South,15.0,21.9,N/A,,Scattered Clouds,170,2013-04-13 18:17:00
12:53 PM,57.0,43.0,59,29.63,10.0,South,17.3,23.0,N/A,,Clear,170,2013-04-13 18:53:00
1:53 PM,63.0,41.0,45,29.57,10.0,South,20.7,27.6,N/A,,Clear,190,2013-04-13 19:53:00
2:53 PM,66.9,39.9,37,29.53,10.0,South,20.7,27.6,N/A,,Clear,180,2013-04-13 20:53:00
3:53 PM,66.9,39.0,36,29.47,10.0,South,16.1,-,N/A,,Clear,170,2013-04-13 21:53:00
4:53 PM,66.0,39.0,37,29.45,10.0,SE,18.4,-,N/A,,Clear,140,2013-04-13 22:53:00
5:53 PM,64.4,39.2,40,29.43,10.0,ESE,11.5,-,N/A,,Clear,120,2013-04-13 23:53:00
6:53 PM,61.0,41.0,48,29.43,10.0,ESE,8.1,-,N/A,,Partly Cloudy,110,2013-04-14 00:53:00
7:53 PM,57.9,41.0,53,29.42,10.0,East,10.4,-,N/A,,Scattered Clouds,90,2013-04-14 01:53:00
8:53 PM,57.0,39.9,53,29.40,10.0,East,12.7,-,N/A,,Partly Cloudy,100,2013-04-14 02:53:00
9:53 PM,55.0,42.1,62,29.40,10.0,East,11.5,-,N/A,,Partly Cloudy,100,2013-04-14 03:53:00
10:53 PM,53.1,43.0,69,29.34,10.0,East,13.8,-,N/A,,Clear,100,2013-04-14 04:53:00
11:53 PM,50.0,44.1,80,29.29,10.0,East,10.4,-,N/A,,Clear,80,2013-04-14 05:53:00